| time (UTC) | temp F | wind direction | speed knots | gust knots | rain 1hr in | rain 24hr in | rain mn in | humidity % | barometer mb |
| 20260906130030 | 77 | 211 | 0.0 | 0.0 | 0.00 | 0.00 | 0.00 | 84 | 1012.6 |
| 20260906124517 | 76 | 211 | 0.0 | 0.0 | 0.00 | 0.00 | 0.00 | 86 | 1012.5 |
| 20260906123015 | 75 | 211 | 0.0 | 0.0 | 0.00 | 0.00 | 0.00 | 87 | 1012.4 |
| 20260906121514 | 75 | 211 | 0.0 | 0.0 | 0.00 | 0.00 | 0.00 | 87 | 1012.3 |
| 20260906120010 | 74 | 211 | 0.0 | 0.0 | 0.00 | 0.00 | 0.00 | 88 | 1012.1 |
| 20260906114509 | 74 | 207 | 0.0 | 0.0 | 0.00 | 0.00 | 0.00 | 89 | 1012.0 |
| 20260906113008 | 74 | 202 | 0.0 | 0.0 | 0.00 | 0.00 | 0.00 | 90 | 1012.1 |
| 20260906111519 | 73 | 192 | 0.0 | 0.0 | 0.00 | 0.00 | 0.00 | 90 | 1012.0 |
| 20260906110013 | 73 | 185 | 0.0 | 0.0 | 0.00 | 0.00 | 0.00 | 91 | 1011.9 |
| 20260906104512 | 73 | 182 | 0.0 | 0.0 | 0.00 | 0.00 | 0.00 | 91 | 1011.8 |
| 20260906103006 | 73 | 201 | 0.0 | 0.0 | 0.00 | 0.00 | 0.00 | 91 | 1011.7 |
| 20260906101505 | 74 | 201 | 0.0 | 0.0 | 0.00 | 0.00 | 0.00 | 90 | 1011.7 |
| 20260906100004 | 74 | 200 | 0.0 | 0.0 | 0.00 | 0.00 | 0.00 | 90 | 1011.7 |
| 20260906094506 | 74 | 200 | 0.0 | 0.0 | 0.00 | 0.00 | 0.00 | 90 | 1011.8 |
| 20260906093002 | 74 | 186 | 0.0 | 0.0 | 0.00 | 0.00 | 0.00 | 89 | 1012.1 |
| 20260906091501 | 74 | 201 | 0.0 | 3.5 | 0.00 | 0.00 | 0.00 | 89 | 1012.3 |
| 20260906090122 | 74 | 252 | 0.0 | 0.0 | 0.00 | 0.00 | 0.00 | 88 | 1012.1 |
| 20260906084559 | 75 | 252 | 0.0 | 0.0 | 0.00 | 0.00 | 0.00 | 87 | 1011.8 |
| 20260906083058 | 75 | 134 | 0.0 | 0.0 | 0.00 | 0.00 | 0.00 | 86 | 1011.5 |
| 20260906081556 | 75 | 134 | 0.0 | 0.0 | 0.00 | 0.00 | 0.00 | 85 | 1011.7 |
| 20260906080054 | 76 | 133 | 0.0 | 0.0 | 0.00 | 0.00 | 0.00 | 85 | 1011.9 |
| 20260906074553 | 75 | 206 | 0.0 | 0.0 | 0.00 | 0.00 | 0.00 | 85 | 1012.7 |
| 20260906073052 | 75 | 154 | 0.0 | 0.0 | 0.00 | 0.00 | 0.00 | 85 | 1012.3 |
| 20260906071559 | 75 | 153 | 0.0 | 0.9 | 0.00 | 0.00 | 0.00 | 84 | 1012.1 |
| 20260906070049 | 76 | 149 | 0.0 | 0.0 | 0.00 | 0.00 | 0.00 | 84 | 1012.2 |
| 20260906064548 | 76 | 141 | 0.0 | 0.0 | 0.00 | 0.00 | 0.00 | 83 | 1012.5 |
| 20260906063047 | 76 | 124 | 0.0 | 0.9 | 0.00 | 0.00 | 0.00 | 83 | 1012.1 |
| 20260906061546 | 77 | 119 | 0.0 | 0.0 | 0.00 | 0.00 | 0.00 | 82 | 1012.4 |
| 20260906060044 | 77 | 108 | 0.0 | 2.6 | 0.00 | 0.00 | 0.00 | 81 | 1012.5 |
| 20260906054544 | 78 | 74 | 0.0 | 0.9 | 0.00 | 0.00 | 0.00 | 82 | 1012.5 |
| 20260906053039 | 78 | 94 | 0.0 | 1.7 | 0.00 | 0.00 | 0.00 | 82 | 1012.6 |
| 20260906051539 | 80 | 109 | 0.0 | 6.1 | 0.00 | 0.00 | 0.00 | 79 | 1012.7 |
| 20260906050052 | 81 | 36 | 0.0 | 0.9 | 0.00 | 0.00 | 0.00 | 77 | 1012.3 |
| 20260906044530 | 81 | 146 | 0.0 | 0.0 | 0.00 | 0.00 | 0.00 | 75 | 1011.8 |
| 20260906043030 | 81 | 146 | 0.0 | 0.0 | 0.00 | 0.00 | 0.00 | 74 | 1011.9 |
| 20260906041529 | 81 | 149 | 0.0 | 0.0 | 0.00 | 0.00 | 0.00 | 74 | 1011.9 |
| 20260906040030 | 81 | 113 | 0.0 | 0.0 | 0.00 | 0.00 | 0.00 | 75 | 1012.0 |
| 20260906034538 | 81 | 113 | 0.0 | 0.0 | 0.00 | 0.00 | 0.00 | 76 | 1012.2 |
| 20260906033029 | 82 | 113 | 0.0 | 0.0 | 0.00 | 0.00 | 0.00 | 75 | 1012.1 |
| 20260906031529 | 82 | 113 | 0.0 | 0.0 | 0.00 | 0.00 | 0.00 | 75 | 1011.9 |
| 20260906030027 | 82 | 113 | 0.0 | 0.0 | 0.00 | 0.00 | 0.00 | 74 | 1011.9 |
| 20260906024525 | 83 | 113 | 0.0 | 0.0 | 0.00 | 0.00 | 0.00 | 74 | 1011.5 |
| 20260906023027 | 84 | 112 | 0.0 | 0.0 | 0.00 | 0.00 | 0.00 | 73 | 1011.2 |
| 20260906021525 | 84 | 112 | 0.0 | 0.0 | 0.00 | 0.00 | 0.00 | 73 | 1011.1 |
| 20260906020027 | 85 | 112 | 0.0 | 0.0 | 0.00 | 0.00 | 0.00 | 72 | 1010.9 |
| 20260906014529 | 86 | 112 | 0.0 | 0.0 | 0.00 | 0.00 | 0.00 | 71 | 1010.6 |
| 20260906013024 | 86 | 96 | 0.0 | 0.9 | 0.00 | 0.00 | 0.00 | 70 | 1010.7 |
| 20260906011525 | 87 | 32 | 0.0 | 0.0 | 0.00 | 0.00 | 0.00 | 72 | 1010.9 |
| 20260906010023 | 87 | 351 | 0.0 | 0.0 | 0.00 | 0.00 | 0.00 | 70 | 1010.8 |
| 20260906004524 | 88 | 351 | 0.0 | 0.0 | 0.00 | 0.00 | 0.00 | 69 | 1010.7 |
| 20260906003022 | 89 | 351 | 0.0 | 0.0 | 0.00 | 0.00 | 0.00 | 68 | 1010.6 |
| 20260906001523 | 91 | 351 | 0.0 | 0.0 | 0.00 | 0.00 | 0.00 | 66 | 1010.5 |
| 20260906000028 | 92 | 351 | 0.0 | 0.0 | 0.00 | 0.00 | 0.00 | 63 | 1010.5 |
| 20260905234519 | 93 | 351 | 0.0 | 0.0 | 0.00 | 0.00 | 0.00 | 61 | 1010.6 |
| 20260905233025 | 93 | 351 | 0.0 | 0.0 | 0.00 | 0.00 | 0.00 | 59 | 1010.6 |
| 20260905231519 | 94 | 351 | 0.0 | 0.0 | 0.00 | 0.00 | 0.00 | 58 | 1010.5 |
| 20260905230018 | 95 | 351 | 0.0 | 0.0 | 0.00 | 0.00 | 0.00 | 56 | 1010.5 |
| 20260905224517 | 95 | 309 | 0.0 | 0.0 | 0.00 | 0.00 | 0.00 | 54 | 1010.5 |
| 20260905223016 | 96 | 338 | 0.0 | 0.0 | 0.00 | 0.00 | 0.00 | 53 | 1010.6 |
| 20260905221515 | 96 | 2 | 0.0 | 0.9 | 0.00 | 0.00 | 0.00 | 50 | 1010.6 |
| 20260905220015 | 96 | 3 | 0.0 | 0.0 | 0.00 | 0.00 | 0.00 | 50 | 1010.6 |
| 20260905214512 | 97 | 343 | 0.0 | 0.0 | 0.00 | 0.00 | 0.00 | 51 | 1010.6 |
| 20260905213011 | 98 | 348 | 0.0 | 0.0 | 0.00 | 0.00 | 0.00 | 50 | 1010.6 |
| 20260905211509 | 98 | 42 | 0.0 | 0.0 | 0.00 | 0.00 | 0.00 | 49 | 1010.8 |
| 20260905210008 | 99 | 80 | 0.0 | 0.0 | 0.00 | 0.00 | 0.00 | 48 | 1010.8 |
| 20260905204510 | 99 | 9 | 0.0 | 0.0 | 0.00 | 0.00 | 0.00 | 48 | 1011.1 |
| 20260905203004 | 99 | 344 | 0.0 | 0.9 | 0.00 | 0.00 | 0.00 | 50 | 1011.3 |
| 20260905201502 | 98 | 323 | 0.0 | 0.0 | 0.00 | 0.00 | 0.00 | 52 | 1011.4 |
| 20260905194559 | 98 | 343 | 0.0 | 0.9 | 0.00 | 0.00 | 0.00 | 53 | 1011.8 |
| 20260905193053 | 98 | 11 | 0.0 | 0.0 | 0.00 | 0.00 | 0.00 | 54 | 1012.1 |
| 20260905191549 | 98 | 343 | 0.0 | 0.9 | 0.00 | 0.00 | 0.00 | 55 | 1012.3 |
| 20260905190046 | 97 | 26 | 0.0 | 0.9 | 0.00 | 0.00 | 0.00 | 54 | 1012.6 |
| 20260905184601 | 97 | 335 | 0.0 | 0.0 | 0.00 | 0.00 | 0.00 | 54 | 1012.8 |
| 20260905183043 | 97 | 18 | 0.0 | 0.0 | 0.00 | 0.00 | 0.00 | 54 | 1013.0 |
| 20260905181540 | 96 | 16 | 0.0 | 0.9 | 0.00 | 0.00 | 0.00 | 57 | 1013.2 |
| 20260905180038 | 96 | 8 | 0.0 | 0.0 | 0.00 | 0.00 | 0.00 | 60 | 1013.2 |
| 20260905174543 | 96 | 339 | 0.0 | 1.7 | 0.00 | 0.00 | 0.00 | 59 | 1013.4 |
| 20260905173033 | 95 | 10 | 0.0 | 1.7 | 0.00 | 0.00 | 0.00 | 61 | 1013.5 |
| 20260905171529 | 94 | 21 | 0.0 | 0.0 | 0.00 | 0.00 | 0.00 | 61 | 1013.6 |
| 20260905170026 | 93 | 360 | 0.0 | 0.0 | 0.00 | 0.00 | 0.00 | 64 | 1013.8 |
| 20260905164523 | 93 | 321 | 0.0 | 0.0 | 0.00 | 0.00 | 0.00 | 64 | 1014.0 |
| 20260905163019 | 92 | 1 | 0.0 | 0.0 | 0.00 | 0.00 | 0.00 | 63 | 1014.2 |
| 20260905161515 | 91 | 275 | 0.0 | 0.0 | 0.00 | 0.00 | 0.00 | 68 | 1014.2 |
| 20260905160022 | 89 | 352 | 0.0 | 0.0 | 0.00 | 0.00 | 0.00 | 73 | 1014.4 |
| 20260905154506 | 87 | 336 | 0.0 | 0.0 | 0.00 | 0.00 | 0.00 | 75 | 1014.5 |
| 20260905153003 | 86 | 21 | 0.0 | 0.0 | 0.00 | 0.00 | 0.00 | 76 | 1014.5 |
| 20260905151600 | 85 | 9 | 0.0 | 0.0 | 0.00 | 0.00 | 0.00 | 77 | 1014.5 |
| 20260905150056 | 83 | 323 | 0.0 | 0.9 | 0.00 | 0.00 | 0.00 | 80 | 1014.5 |
| 20260905144552 | 82 | 171 | 0.0 | 0.0 | 0.00 | 0.00 | 0.00 | 82 | 1014.7 |
| 20260905143048 | 80 | 171 | 0.0 | 0.0 | 0.00 | 0.00 | 0.00 | 85 | 1014.8 |
| 20260905141607 | 79 | 171 | 0.0 | 0.0 | 0.00 | 0.00 | 0.00 | 88 | 1014.7 |
| 20260905140053 | 78 | 171 | 0.0 | 0.0 | 0.00 | 0.00 | 0.00 | 89 | 1014.8 |
| 20260905134544 | 77 | 171 | 0.0 | 0.9 | 0.00 | 0.00 | 0.00 | 90 | 1014.9 |
| 20260905133050 | 77 | 171 | 0.0 | 0.0 | 0.00 | 0.00 | 0.00 | 92 | 1014.8 |
| 20260905131551 | 76 | 171 | 0.0 | 0.0 | 0.00 | 0.00 | 0.00 | 93 | 1014.9 |